Lid_Strength_Index
7 7 7 8 8 7 7 6 6 7 6 7 6 6 7 8 6 6 5 5 6 5 5 5 5 4 5 5 5 4 4 4
7 8 8 8 7 6 6 6 7 7 7 7 8 7 7 7 7 5 5 5 6 5 5 5 5 5 5 5 4 4 4 5
8 8 8 8 7 7 7 6 6 7 7 7 7 7 6 7 6 6 5 6 6 6 5 5 6 6 6 7 5 5 6 5
7 7 8 7 7 7 7 6 6 6 7 7 6 6 6 6 6 6 7 6 6 6 6 6 7 7 6 6 5 6 5 5
8 8 8 7 7 6 7 6 6 7 7 6 6 6 7 7 7 7 6 7 7 7 7 7 8 9 7 7 6 6 4 6
8 8 8 8 7 7 6 6 7 7 7 7 7 7 7 7 7 7 6 6 7 7 7 8 9 8 7 7 5 6 4 5
8 7 7 7 7 6 6 7 7 7 8 7 7 7 7 7 7 7 6 7 7 7 8 8 8 8 7 6 6 5 4 5
8 7 7 7 7 7 7 7 7 8 7 7 7 6 6 7 6 7 6 7 6 6 6 8 6 7 6 6 6 6 6 5
7 8 9 8 7 7 7 7 8 7 7 6 6 5 6 7 9 9 10 9 7 7 6 6 7 7 7 6 5 6 7 5
7 8 8 8 7 8 8 9 8 7 7 6 7 8 7 8 11 11 11 11 10 9 9 9 8 8 5 5 5 5 4 6
7 8 8 7 7 8 9 8 7 6 7 8 9 9 9 8 11 12 12 12 11 10 8 10 9 7 8 6 5 5 5 5
7 7 8 8 8 7 7 7 6 7 7 8 9 10 10 10 9 10 12 13 12 11 10 9 10 9 8 8 7 7 5 5
8 8 9 9 8 6 6 6 6 8 9 9 8 9 9 10 10 10 11 13 12 12 11 9 9 9 8 7 7 7 6 6
8 8 8 8 7 7 7 7 8 9 9 8 8 9 8 8 10 11 10 10 10 9 9 10 9 7 6 6 6 6 6 6
7 7 7 7 8 8 7 7 7 9 10 9 9 8 9 9 9 9 10 9 9 8 8 8 8 8 7 6 6 6 5 4
6 7 7 8 8 8 7 7 7 8 9 8 10 8 8 8 9 8 7 8 9 8 7 8 7 7 6 6 6 5 4 5
6 7 7 7 8 8 6 6 6 8 9 9 9 9 8 8 8 8 8 8 7 7 7 6 6 5 5 6 6 5 5 6
7 8 7 7 7 7 6 6 6 6 7 8 9 9 8 8 8 8 8 7 7 7 7 7 5 5 5 5 5 5 5 5
6 6 6 7 7 6 5 6 6 6 6 6 7 8 8 8 8 8 7 7 7 6 6 6 9 7 6 6 5 5 5 5
6 7 6 6 7 6 5 4 6 7 7 7 7 7 7 8 8 7 7 7 6 6 6 6 8 6 5 5 5 5 5 4